Sedona, AZ

6:30 PM MST on October 19, 2019 (GMT -0700)
Sedona

Weather History for KSEZ - August, 2019

Change the Weather History Date:

Sunday, August 4, 2019

  Actual Average Record
Temperature  
Mean Temperature 84 °F -  
Max Temperature 96 °F 96 °F 96 °F (2015)
Min Temperature 73 °F 64 °F 62 °F (2017)
Cooling Degree Days 20    
Growing Degree Days 34 (Base 50)    
Moisture  
Dew Point 54 °F    
Average Humidity 39    
Maximum Humidity 61    
Minimum Humidity 22    
Precipitation  
Precipitation 0.00 in - - ()
Sea Level Pressure  
Sea Level Pressure 30.19 in    
Wind  
Wind Speed 6 mph (NE)    
Max Wind Speed 16 mph    
Max Gust Speed 26 mph    
Visibility 10 miles    
Events Thunderstorm    
Averages and records for this station are not official NWS values.
T = Trace of Precipitation, MM = Missing Value Source: NWS Daily Summary

Daily Weather History Graph

Daily Weather History Graph

Search for Another Location

Airport or City:

Astronomy

Aug. 04, 2019 Rise Set
Actual Time 5:39 AM MST 7:27 PM MST
Civil Twilight 5:11 AM MST 7:54 PM MST
Nautical Twilight 4:38 AM MST 8:27 PM MST
Astronomical Twilight 4:02 AM MST 9:02 PM MST
Moon 9:40 AM MST (8/4) 10:18 PM MST (8/4)
Length of Visible Light 14h 42m
Length of Day
13h 47m
Waxing Crescent, 19% of the Moon is Illuminated
Aug 4
Waxing Crescent
Aug 7
First Quarter
Aug 15
Full
Aug 23
Last Quarter
Aug 30
New

Hourly Weather History & Observations

Time (MST) Temp. Heat Index Dew Point Humidity Pressure Visibility Wind Dir Wind Speed Gust Speed Precip Events Conditions
12:15 AM 77.0 °F - 59.0 °F 54% 30.22 in 10.0 mi North 4.6 mph - N/A   Clear
12:35 AM 75.2 °F - 55.4 °F 50% 30.23 in 10.0 mi Calm Calm - N/A   Scattered Clouds
12:55 AM 73.4 °F - 57.2 °F 57% 30.24 in 10.0 mi South 12.7 mph 17.3 mph N/A   Scattered Clouds
1:15 AM 73.4 °F - 57.2 °F 57% 30.25 in 10.0 mi Calm Calm - N/A   Scattered Clouds
1:35 AM 73.4 °F - 59.0 °F 61% 30.23 in 10.0 mi Calm Calm - N/A   Mostly Cloudy
1:55 AM 73.4 °F - 59.0 °F 61% 30.22 in 10.0 mi NNE 6.9 mph - N/A   Scattered Clouds
2:15 AM 73.4 °F - 57.2 °F 57% 30.20 in 10.0 mi NNE 9.2 mph - N/A   Scattered Clouds
2:35 AM 73.4 °F - 55.4 °F 53% 30.19 in 10.0 mi NNE 11.5 mph - N/A   Clear
2:55 AM 73.4 °F - 55.4 °F 53% 30.18 in 10.0 mi NNE 8.1 mph - N/A   Clear
3:15 AM 73.4 °F - 55.4 °F 53% 30.19 in 10.0 mi North 8.1 mph - N/A   Clear
3:35 AM 73.4 °F - 55.4 °F 53% 30.18 in 10.0 mi NNE 9.2 mph - N/A   Clear
3:55 AM 73.4 °F - 55.4 °F 53% 30.18 in 10.0 mi NE 16.1 mph 20.7 mph N/A   Clear
4:15 AM 73.4 °F - 53.6 °F 50% 30.18 in 10.0 mi NE 11.5 mph 18.4 mph N/A   Clear
4:35 AM 75.2 °F - 53.6 °F 47% 30.19 in 10.0 mi ENE 10.4 mph - N/A   Clear
4:55 AM 75.2 °F - 53.6 °F 47% 30.19 in 10.0 mi NE 5.8 mph - N/A   Clear
5:15 AM 73.4 °F - 53.6 °F 50% 30.19 in 10.0 mi NE 9.2 mph - N/A   Clear
5:35 AM 73.4 °F - 53.6 °F 50% 30.20 in 10.0 mi NNE 10.4 mph - N/A   Clear
5:55 AM 73.4 °F - 53.6 °F 50% 30.21 in 10.0 mi NNE 11.5 mph - N/A   Clear
6:15 AM 73.4 °F - 53.6 °F 50% 30.21 in 10.0 mi NE 10.4 mph 16.1 mph N/A   Clear
6:35 AM 75.2 °F - 53.6 °F 47% 30.21 in 10.0 mi NE 10.4 mph - N/A   Scattered Clouds
6:55 AM 75.2 °F - 53.6 °F 47% 30.21 in 10.0 mi NE 12.7 mph - N/A   Mostly Cloudy
7:15 AM 75.2 °F - 53.6 °F 47% 30.22 in 10.0 mi ENE 4.6 mph - N/A   Overcast
7:35 AM 73.4 °F - 55.4 °F 53% 30.22 in 10.0 mi Calm Calm - N/A   Overcast
7:55 AM 77.0 °F - 55.4 °F 47% 30.22 in 10.0 mi Calm Calm - N/A   Scattered Clouds
8:15 AM 78.8 °F - 55.4 °F 44% 30.22 in 10.0 mi Calm Calm - N/A   Scattered Clouds
8:35 AM 80.6 °F 80.5 °F 55.4 °F 42% 30.22 in 10.0 mi Calm Calm - N/A   Clear
8:55 AM 80.6 °F 80.5 °F 55.4 °F 42% 30.22 in 10.0 mi Calm Calm - N/A   Clear
9:15 AM 82.4 °F 82.0 °F 57.2 °F 42% 30.22 in 10.0 mi Calm Calm - N/A   Clear
9:35 AM 82.4 °F 81.7 °F 55.4 °F 39% 30.22 in 10.0 mi Calm Calm - N/A   Clear
9:55 AM 86.0 °F 84.9 °F 57.2 °F 37% 30.22 in 10.0 mi South 5.8 mph - N/A   Clear
10:15 AM 84.2 °F 82.8 °F 53.6 °F 35% 30.22 in 10.0 mi Calm Calm - N/A   Clear
10:35 AM 87.8 °F 85.7 °F 53.6 °F 31% 30.21 in 10.0 mi SE 3.5 mph - N/A   Clear
10:55 AM 89.6 °F 87.3 °F 53.6 °F 29% 30.21 in 10.0 mi South 5.8 mph - N/A   Clear
11:15 AM 91.4 °F - 51.8 °F 26% 30.21 in 10.0 mi Calm Calm - N/A   Clear
11:35 AM 89.6 °F - 51.8 °F 27% 30.21 in 10.0 mi Calm Calm - N/A   Clear
11:55 AM 95.0 °F - 51.8 °F 23% 30.21 in 10.0 mi South 5.8 mph - N/A   Clear
12:15 PM 91.4 °F - 51.8 °F 26% 30.20 in 10.0 mi South 3.5 mph - N/A   Clear
12:35 PM 95.0 °F - 51.8 °F 23% 30.19 in 10.0 mi Calm Calm - N/A   Clear
12:55 PM 91.4 °F - 51.8 °F 26% 30.18 in 10.0 mi SSE 9.2 mph - N/A   Clear
1:15 PM 91.4 °F - 51.8 °F 26% 30.18 in 10.0 mi South 10.4 mph 16.1 mph N/A   Clear
1:35 PM 95.0 °F - 51.8 °F 23% 30.17 in 10.0 mi South 8.1 mph - N/A   Clear
1:55 PM 93.2 °F - 51.8 °F 24% 30.16 in 10.0 mi SSW 8.1 mph 18.4 mph N/A Thunderstorm Scattered Clouds
2:15 PM 95.0 °F - 51.8 °F 23% 30.15 in 10.0 mi WSW 5.8 mph - N/A Thunderstorm Clear
2:35 PM 96.8 °F - 51.8 °F 22% 30.16 in 10.0 mi East 12.7 mph 21.9 mph N/A Thunderstorm Scattered Clouds
2:55 PM 87.8 °F - 51.8 °F 29% 30.17 in 10.0 mi ENE 13.8 mph 26.5 mph N/A   Scattered Clouds
3:15 PM 89.6 °F 87.3 °F 53.6 °F 29% 30.15 in 10.0 mi ENE 10.4 mph 21.9 mph N/A   Scattered Clouds
3:35 PM 91.4 °F 89.1 °F 53.6 °F 28% 30.15 in 10.0 mi NNE 9.2 mph 16.1 mph N/A   Clear
3:55 PM 87.8 °F - 51.8 °F 29% 30.14 in 10.0 mi NNE 4.6 mph - N/A   Clear
4:15 PM 87.8 °F - 51.8 °F 29% 30.14 in 10.0 mi NNW 6.9 mph - N/A   Scattered Clouds
4:35 PM 86.0 °F 84.2 °F 53.6 °F 33% 30.13 in 10.0 mi North 5.8 mph - N/A   Mostly Cloudy
4:55 PM 87.8 °F 85.7 °F 53.6 °F 31% 30.13 in 10.0 mi NW 4.6 mph - N/A   Scattered Clouds
5:15 PM 87.8 °F 85.7 °F 53.6 °F 31% 30.13 in 10.0 mi NNW 6.9 mph - N/A   Clear
5:35 PM 87.8 °F - 51.8 °F 29% 30.13 in 10.0 mi NNW 4.6 mph - N/A   Clear
5:55 PM 89.6 °F 87.7 °F 55.4 °F 31% 30.13 in 10.0 mi ENE 4.6 mph - N/A   Clear
6:15 PM 89.6 °F 87.3 °F 53.6 °F 29% 30.13 in 10.0 mi North 6.9 mph - N/A   Clear
6:35 PM 89.6 °F - 51.8 °F 27% 30.14 in 10.0 mi NNW 8.1 mph - N/A   Clear
8:50 PM 82.4 °F 81.4 °F 53.6 °F 37% 30.16 in 10.0 mi NNE 9.2 mph - N/A   Clear
9:15 PM 82.4 °F 81.4 °F 53.6 °F 37% 30.17 in 10.0 mi NNE 9.2 mph - N/A   Clear
9:35 PM 80.6 °F 80.3 °F 53.6 °F 39% 30.17 in 10.0 mi NNE 10.4 mph - N/A   Clear
9:55 PM 80.6 °F 80.3 °F 53.6 °F 39% 30.17 in 10.0 mi NE 10.4 mph - N/A   Clear
10:15 PM 80.6 °F 80.3 °F 53.6 °F 39% 30.17 in 10.0 mi NNE 12.7 mph - N/A   Clear
10:35 PM 78.8 °F - 53.6 °F 42% 30.17 in 10.0 mi NNE 15.0 mph - N/A   Clear
10:55 PM 78.8 °F - 53.6 °F 42% 30.17 in 10.0 mi NNE 11.5 mph - N/A   Scattered Clouds
11:15 PM 80.6 °F - 51.8 °F 37% 30.17 in 10.0 mi NE 9.2 mph - N/A   Mostly Cloudy
11:35 PM 78.8 °F - 53.6 °F 42% 30.17 in 10.0 mi NNE 12.7 mph - N/A   Mostly Cloudy